Flag for U.S.A. Weather past 2 weeks in Everett, Washington, U.S.A.

Now
70 °F

Sunny.


Feels Like: 77 °F
Forecast: 56 / 81 °F
Wind: No wind

Location: Snohomish County Airport

Current Time: Aug 1, 2014 at 9:58:57 AM

Latest Report: Aug 1, 2014 at 8:53 AM


Visibility: 10 mi

Pressure: 30.07 "Hg

Humidity: 49%

Dew point: 50 °F

Location of EverettLocation

Historic Weather in Everett — Graph

°F

Everett temperature yesterday

Maximum temperature yesterday: 79 °F (at 3:53 PM)
Minimum temperature yesterday: 57 °F (at 5:53 AM)
Average temperature yesterday: 67 °F

Past Weeks' High & Low Weather Summary

 TemperatureHumidityPressure
High80 °F (Jul 28, 3:53 PM)97% (Jul 19, 9:53 PM)30.23 "Hg (Jul 19, 9:53 PM)
Low53 °F (Jul 22, 3:53 AM)38% (Jul 21, 4:53 PM)29.95 "Hg (Jul 19, 8:53 PM)
Average63 °F71%30.08 "Hg
* Reported Jul 17 7:53 AM — Aug 1 7:53 AM, Everett, Weather by CustomWeather, © 2014

Note: Actual official high and low records may vary slightly from our data, if they occured in-between our weather recording intervals... More about our weather records

Advertising

Everett weather history for previous 24 hours

 ConditionsComfort  
Time TempWeatherWind HumidityBarometerVisibility
7:53 AM
Aug 1
65 °FSunny.No wind59%30.08 "Hg10 mi
6:53 AM58 °FSunny.No wind78%30.07 "Hg10 mi
5:53 AM58 °FClear.5 mph75%30.05 "Hg10 mi
4:53 AM59 °FClear.5 mph72%30.04 "Hg10 mi
3:53 AM59 °FClear.No wind72%30.05 "Hg10 mi
2:53 AM63 °FClear.5 mph54%30.04 "Hg10 mi
1:53 AM64 °FClear.8 mph54%30.04 "Hg10 mi
12:53 AM65 °FClear.6 mph49%30.04 "Hg10 mi
11:53 PM
Jul 31
64 °FClear.7 mph52%30.04 "Hg10 mi
10:53 PM62 °FClear.9 mph56%30.05 "Hg10 mi
9:53 PM64 °FClear.9 mph52%30.05 "Hg10 mi
8:53 PM63 °FSunny.8 mph56%30.05 "Hg10 mi
7:53 PM68 °FSunny.6 mph53%30.05 "Hg10 mi
6:53 PM71 °FSunny.5 mph47%30.05 "Hg10 mi
5:53 PM76 °FSunny.9 mph42%30.05 "Hg10 mi
4:53 PM79 °FSunny.9 mph44%30.05 "Hg10 mi
3:53 PM79 °FSunny.8 mph47%30.06 "Hg10 mi
2:53 PM77 °FSunny.9 mph48%30.07 "Hg10 mi
1:53 PM77 °FSunny.10 mph48%30.09 "Hg10 mi
12:53 PM75 °FSunny.7 mph50%30.10 "Hg10 mi
11:53 AM72 °FSunny.8 mph53%30.11 "Hg10 mi
10:53 AM70 °FSunny.6 mph55%30.11 "Hg10 mi
9:53 AM67 °FSunny.No wind53%30.12 "Hg10 mi
Weather by CustomWeather, © 2014

See weather overviewHow to use our weather pages